Flag for United Kingdom Weather past 2 weeks in Newcastle upon Tyne, England, United Kingdom

Now
59 °F

Broken clouds.


Feels Like: 59 °F
Forecast: 53 / 62 °F
Wind: 5 mph from East

Location: Newcastle

Current Time: Sep 16, 2014 at 7:31:42 PM

Latest Report: Sep 16, 2014 at 6:50 PM


Visibility: 4 mi

Pressure: 30.04 "Hg

Humidity: 88%

Dew point: 55 °F

Location of Newcastle upon TyneLocation

Historic Weather in Newcastle upon Tyne — Graph

°F

Newcastle upon Tyne temperature yesterday

Maximum temperature yesterday: 59 °F (at 10:50 AM)
Minimum temperature yesterday: 55 °F (at 12:20 AM)
Average temperature yesterday: 57 °F

Past Weeks' High & Low Weather Summary

 TemperatureHumidityPressure
High70 °F (Sep 3, 2:20 PM)100% (Sep 2, 5:20 AM)30.42 "Hg (Sep 2, 5:20 AM)
Low43 °F (Sep 12, 5:50 AM)49% (Sep 3, 1:20 PM)29.95 "Hg (Sep 6, 3:20 PM)
Average56 °F86%30.17 "Hg
* Reported Sep 1 6:20 PM — Sep 16 6:20 PM, Newcastle upon Tyne, Weather by CustomWeather, © 2014

Note: Actual official high and low records may vary slightly from our data, if they occured in-between our weather recording intervals... More about our weather records

Advertising

Newcastle upon Tyne weather history for previous 24 hours

 ConditionsComfort  
Time TempWeatherWind HumidityBarometerVisibility
6:20 PM
Sep 16
59 °FScattered clouds.5 mph88%30.04 "Hg4 mi
5:50 PM59 °FPassing clouds.7 mph88%30.04 "Hg5 mi
5:20 PM61 °FPassing clouds.7 mph83%30.04 "Hg5 mi
4:50 PM61 °FScattered clouds.6 mph83%30.04 "Hg5 mi
4:20 PM63 °FScattered clouds.6 mph77%30.04 "Hg5 mi
3:20 PM63 °FPartly sunny.6 mph77%30.04 "Hg4 mi
2:50 PM63 °FPartly sunny.7 mph77%30.04 "Hg4 mi
2:20 PM63 °FPartly sunny.7 mph83%30.04 "Hg4 mi
1:50 PM61 °FFog.7 mph88%30.04 "Hg3 mi
1:20 PM61 °FFog.6 mph88%30.04 "Hg3 mi
12:20 PM61 °FFog.7 mph94%30.07 "Hg3 mi
11:50 AM61 °FFog.3 mph94%30.07 "Hg3 mi
11:20 AM61 °FFog.3 mph100%30.07 "Hg3 mi
10:50 AM59 °FFog.3 mph100%30.07 "Hg3 mi
9:20 AM57 °FFog.No wind100%30.07 "Hg1 mi
8:50 AM55 °FFog.No wind100%30.07 "Hg1 mi
8:20 AM55 °FFog.No wind100%30.04 "Hg1 mi
7:50 AM55 °FFog.2 mph100%30.04 "Hg1 mi
7:20 AM55 °FFog.3 mph100%30.04 "Hg0 mi
6:50 AM55 °FFog.No wind100%30.04 "Hg0 mi
6:20 AM55 °FFog.3 mph94%30.04 "Hg0 mi
5:50 AM55 °FFog.3 mph100%30.04 "Hg0 mi
5:20 AM55 °FFog.2 mph100%30.04 "Hg0 mi
4:50 AM55 °FFog.3 mph100%30.04 "Hg0 mi
4:20 AM55 °FFog.3 mph100%30.04 "Hg1 mi
3:50 AM54 °FFog.2 mph100%30.04 "Hg1 mi
2:50 AM57 °FFog.5 mph100%30.04 "Hg3 mi
1:50 AM57 °FFog.3 mph100%30.04 "Hg3 mi
1:20 AM57 °FFog.3 mph100%30.04 "Hg2 mi
12:20 AM57 °FFog.3 mph100%30.04 "Hg3 mi
11:50 PM
Sep 15
57 °FFog.3 mph100%30.07 "Hg2 mi
11:20 PM57 °FFog.2 mph100%30.07 "Hg3 mi
10:50 PM57 °FPassing clouds.No wind100%30.07 "Hg4 mi
10:20 PM57 °FPassing clouds.2 mph100%30.07 "Hg4 mi
9:50 PM57 °FPassing clouds.2 mph100%30.07 "Hg4 mi
9:20 PM57 °FPassing clouds.3 mph100%30.07 "Hg4 mi
8:50 PM57 °FPassing clouds.6 mph100%30.07 "Hg4 mi
8:20 PM57 °FPartly sunny.3 mph100%30.07 "Hg4 mi
7:50 PM57 °FPartly sunny.5 mph100%30.07 "Hg4 mi
7:20 PM57 °FPartly sunny.6 mph100%30.04 "Hg4 mi
Weather by CustomWeather, © 2014

See weather overviewHow to use our weather pages